| time (UTC) | temp F | wind direction | speed knots | gust knots | rain 1hr in | rain 24hr in | rain mn in | humidity % | barometer mb |
| 20260905131559 | 76 | 300 | 0.9 | 4.3 | 0.00 | 0.00 | 0.00 | 95 | 1010.8 |
| 20260905130113 | 76 | 1 | 0.9 | 4.3 | 0.00 | 0.00 | 0.00 | 96 | 1011.0 |
| 20260905124601 | 75 | 295 | 1.7 | 5.2 | 0.00 | 0.00 | 0.00 | 97 | 1010.9 |
| 20260905123109 | 75 | 324 | 1.7 | 3.5 | 0.00 | 0.00 | 0.00 | 98 | 1011.0 |
| 20260905121602 | 74 | 340 | 0.9 | 2.6 | 0.00 | 0.00 | 0.00 | 99 | 1010.8 |
| 20260905120112 | 74 | 0 | 0.0 | 0.0 | 0.00 | 0.00 | 0.00 | 99 | 1010.7 |
| 20260905114637 | 73 | 0 | 0.0 | 0.0 | 0.00 | 0.00 | 0.00 | 100 | 1010.7 |
| 20260905113102 | 73 | 0 | 0.0 | 0.0 | 0.00 | 0.00 | 0.00 | 100 | 1010.6 |
| 20260905111601 | 72 | 0 | 0.0 | 0.0 | 0.00 | 0.00 | 0.00 | 100 | 1010.7 |
| 20260905110059 | 72 | 310 | 0.0 | 0.9 | 0.00 | 0.00 | 0.00 | 100 | 1010.3 |
| 20260905104605 | 72 | 0 | 0.0 | 0.9 | 0.00 | 0.01 | 0.00 | 99 | 1009.9 |
| 20260905103101 | 72 | 333 | 0.0 | 2.6 | 0.00 | 0.01 | 0.00 | 99 | 1009.8 |
| 20260905101600 | 72 | 0 | 0.0 | 0.9 | 0.00 | 0.01 | 0.00 | 99 | 1009.7 |
| 20260905100113 | 72 | 0 | 0.0 | 0.0 | 0.00 | 0.01 | 0.00 | 99 | 1009.6 |
| 20260905094624 | 72 | 0 | 0.0 | 0.0 | 0.00 | 0.01 | 0.00 | 99 | 1009.6 |
| 20260905093102 | 72 | 0 | 0.0 | 0.0 | 0.00 | 0.01 | 0.00 | 99 | 1009.6 |
| 20260905091615 | 72 | 0 | 0.0 | 0.9 | 0.00 | 0.01 | 0.00 | 99 | 1009.6 |
| 20260905090057 | 72 | 0 | 0.0 | 0.0 | 0.00 | 0.01 | 0.00 | 98 | 1009.8 |
| 20260905084603 | 73 | 0 | 0.0 | 0.9 | 0.00 | 0.03 | 0.00 | 98 | 1009.9 |
| 20260905083102 | 73 | 0 | 0.0 | 0.9 | 0.00 | 0.03 | 0.00 | 98 | 1009.8 |
| 20260905081558 | 73 | 342 | 0.0 | 1.7 | 0.00 | 0.03 | 0.00 | 98 | 1009.8 |
| 20260905080101 | 73 | 333 | 0.0 | 1.7 | 0.00 | 0.03 | 0.00 | 98 | 1010.0 |
| 20260905074605 | 74 | 353 | 0.0 | 2.6 | 0.00 | 0.12 | 0.00 | 97 | 1009.9 |
| 20260905073105 | 74 | 28 | 0.9 | 3.5 | 0.00 | 0.12 | 0.00 | 97 | 1009.9 |
| 20260905071602 | 74 | 283 | 0.0 | 1.7 | 0.00 | 0.12 | 0.00 | 97 | 1010.1 |
| 20260905070104 | 74 | 328 | 0.0 | 0.9 | 0.00 | 0.12 | 0.00 | 97 | 1010.3 |
| 20260905064616 | 74 | 0 | 0.0 | 1.7 | 0.00 | 0.39 | 0.00 | 97 | 1010.2 |
| 20260905063059 | 74 | 0 | 0.0 | 2.6 | 0.00 | 0.39 | 0.00 | 97 | 1010.4 |
| 20260905061619 | 74 | 307 | 0.0 | 1.7 | 0.00 | 0.39 | 0.00 | 97 | 1010.5 |
| 20260905060104 | 75 | 0 | 0.0 | 0.0 | 0.00 | 0.39 | 0.00 | 96 | 1010.2 |
| 20260905054604 | 75 | 0 | 0.0 | 0.9 | 0.00 | 0.39 | 0.00 | 96 | 1010.3 |
| 20260905053102 | 76 | 335 | 0.0 | 1.7 | 0.00 | 0.39 | 0.00 | 95 | 1010.7 |
| 20260905051611 | 76 | 0 | 0.0 | 1.7 | 0.00 | 0.39 | 0.00 | 95 | 1010.9 |
| 20260905050107 | 76 | 319 | 0.9 | 2.6 | 0.00 | 0.39 | 0.00 | 95 | 1011.2 |
| 20260905044603 | 76 | 322 | 0.9 | 2.6 | 0.00 | 0.39 | 0.00 | 95 | 1011.1 |
| 20260905043055 | 77 | 352 | 0.9 | 3.5 | 0.00 | 0.39 | 0.00 | 96 | 1011.1 |
| 20260905041604 | 76 | 0 | 0.0 | 0.0 | 0.00 | 0.39 | 0.00 | 96 | 1011.4 |
| 20260905040103 | 76 | 0 | 0.0 | 0.0 | 0.00 | 0.39 | 0.00 | 97 | 1011.5 |
| 20260905034609 | 76 | 0 | 0.0 | 0.0 | 0.00 | 0.39 | 0.39 | 97 | 1011.6 |
| 20260905033111 | 75 | 0 | 0.0 | 0.0 | 0.00 | 0.39 | 0.39 | 97 | 1011.8 |
| 20260905031616 | 75 | 0 | 0.0 | 0.0 | 0.00 | 0.39 | 0.39 | 97 | 1011.9 |
| 20260905030110 | 75 | 0 | 0.0 | 0.0 | 0.00 | 0.39 | 0.39 | 97 | 1011.9 |
| 20260905024602 | 75 | 0 | 0.0 | 0.0 | 0.00 | 0.39 | 0.39 | 97 | 1011.8 |
| 20260905023127 | 75 | 0 | 0.0 | 0.0 | 0.00 | 0.39 | 0.39 | 96 | 1011.6 |
| 20260905021602 | 75 | 0 | 0.0 | 0.0 | 0.00 | 0.39 | 0.39 | 96 | 1011.9 |
| 20260905020106 | 76 | 0 | 0.0 | 0.0 | 0.00 | 0.39 | 0.39 | 96 | 1012.1 |
| 20260905014616 | 75 | 0 | 0.0 | 0.0 | 0.00 | 0.39 | 0.39 | 96 | 1012.1 |
| 20260905013057 | 76 | 0 | 0.0 | 0.0 | 0.00 | 0.39 | 0.39 | 96 | 1012.1 |
| 20260905011607 | 76 | 0 | 0.0 | 0.0 | 0.00 | 0.39 | 0.39 | 95 | 1012.1 |
| 20260905010107 | 76 | 0 | 0.0 | 0.0 | 0.00 | 0.39 | 0.39 | 95 | 1012.2 |
| 20260905004601 | 76 | 0 | 0.0 | 0.0 | 0.00 | 0.39 | 0.39 | 94 | 1012.2 |
| 20260905003058 | 76 | 0 | 0.0 | 0.0 | 0.00 | 0.39 | 0.39 | 94 | 1012.0 |
| 20260905001558 | 77 | 0 | 0.0 | 0.0 | 0.00 | 0.39 | 0.39 | 93 | 1012.0 |
| 20260905000119 | 77 | 0 | 0.0 | 0.0 | 0.00 | 0.39 | 0.39 | 92 | 1011.6 |
| 20260904234601 | 77 | 0 | 0.0 | 0.0 | 0.00 | 0.39 | 0.39 | 91 | 1011.3 |
| 20260904233100 | 78 | 0 | 0.0 | 0.0 | 0.00 | 0.39 | 0.39 | 90 | 1011.4 |
| 20260904231600 | 79 | 0 | 0.0 | 0.0 | 0.00 | 0.39 | 0.39 | 88 | 1011.7 |
| 20260904230105 | 81 | 0 | 0.0 | 0.0 | 0.00 | 0.39 | 0.39 | 86 | 1012.0 |
| 20260904224606 | 82 | 0 | 0.0 | 0.9 | 0.00 | 0.39 | 0.39 | 83 | 1012.2 |
| 20260904223058 | 82 | 318 | 0.0 | 2.6 | 0.00 | 0.39 | 0.39 | 82 | 1012.5 |
| 20260904221605 | 83 | 312 | 0.9 | 2.6 | 0.00 | 0.39 | 0.39 | 81 | 1012.8 |
| 20260904220119 | 83 | 0 | 1.7 | 3.5 | 0.00 | 0.39 | 0.39 | 82 | 1012.4 |
| 20260904214600 | 84 | 0 | 0.0 | 0.0 | 0.00 | 0.39 | 0.39 | 82 | 1011.9 |
| 20260904213107 | 85 | 0 | 0.0 | 0.9 | 0.00 | 0.39 | 0.39 | 77 | 1012.0 |
| 20260904211606 | 86 | 8 | 0.9 | 4.3 | 0.00 | 0.39 | 0.39 | 73 | 1011.9 |
| 20260904210117 | 88 | 301 | 1.7 | 4.3 | 0.00 | 0.39 | 0.39 | 70 | 1012.0 |
| 20260904204604 | 88 | 295 | 1.7 | 4.3 | 0.00 | 0.39 | 0.39 | 69 | 1012.0 |
| 20260904203102 | 88 | 345 | 1.7 | 5.2 | 0.00 | 0.39 | 0.39 | 68 | 1011.9 |
| 20260904201602 | 88 | 258 | 0.0 | 3.5 | 0.00 | 0.39 | 0.39 | 73 | 1011.8 |
| 20260904194558 | 88 | 321 | 1.7 | 4.3 | 0.00 | 0.39 | 0.39 | 71 | 1012.0 |
| 20260904193116 | 87 | 20 | 2.6 | 6.1 | 0.00 | 0.39 | 0.39 | 74 | 1012.3 |
| 20260904191604 | 87 | 356 | 1.7 | 5.2 | 0.00 | 0.39 | 0.39 | 73 | 1012.6 |
| 20260904190058 | 87 | 28 | 0.0 | 3.5 | 0.00 | 0.39 | 0.39 | 75 | 1012.5 |
| 20260904184621 | 86 | 223 | 1.7 | 5.2 | 0.00 | 0.39 | 0.39 | 71 | 1012.9 |
| 20260904183102 | 86 | 281 | 3.5 | 6.1 | 0.00 | 0.39 | 0.39 | 72 | 1013.2 |
| 20260904181610 | 85 | 274 | 1.7 | 6.1 | 0.00 | 0.39 | 0.39 | 78 | 1013.2 |
| 20260904180120 | 86 | 0 | 0.9 | 5.2 | 0.00 | 0.39 | 0.39 | 74 | 1013.2 |
| 20260904174613 | 86 | 293 | 1.7 | 5.2 | 0.00 | 0.39 | 0.39 | 78 | 1013.4 |
| 20260904173101 | 85 | 292 | 2.6 | 7.0 | 0.00 | 0.39 | 0.39 | 74 | 1013.5 |
| 20260904171606 | 85 | 326 | 1.7 | 5.2 | 0.00 | 0.39 | 0.39 | 77 | 1013.4 |
| 20260904170105 | 84 | 296 | 2.6 | 5.2 | 0.00 | 0.39 | 0.39 | 74 | 1013.5 |
| 20260904164602 | 84 | 275 | 2.6 | 6.1 | 0.00 | 0.39 | 0.39 | 76 | 1013.6 |
| 20260904163107 | 84 | 286 | 2.6 | 7.0 | 0.00 | 0.39 | 0.39 | 78 | 1013.7 |
| 20260904161603 | 84 | 15 | 2.6 | 6.1 | 0.00 | 0.39 | 0.39 | 76 | 1013.7 |
| 20260904160106 | 84 | 346 | 3.5 | 9.6 | 0.00 | 0.39 | 0.39 | 79 | 1013.9 |
| 20260904154600 | 84 | 297 | 4.3 | 10.4 | 0.00 | 0.39 | 0.39 | 79 | 1014.0 |
| 20260904153105 | 83 | 328 | 3.5 | 7.8 | 0.00 | 0.39 | 0.39 | 78 | 1013.8 |
| 20260904151602 | 83 | 6 | 3.5 | 8.7 | 0.00 | 0.39 | 0.39 | 81 | 1013.8 |
| 20260904150100 | 82 | 1 | 3.5 | 7.8 | 0.00 | 0.39 | 0.39 | 81 | 1013.8 |
| 20260904144600 | 82 | 315 | 2.6 | 7.8 | 0.00 | 0.39 | 0.39 | 83 | 1014.1 |
| 20260904143109 | 81 | 342 | 3.5 | 8.7 | 0.00 | 0.39 | 0.39 | 84 | 1013.9 |
| 20260904141602 | 81 | 290 | 2.6 | 7.8 | 0.00 | 0.39 | 0.39 | 85 | 1013.7 |
| 20260904140104 | 80 | 322 | 2.6 | 7.8 | 0.00 | 0.39 | 0.39 | 88 | 1013.7 |
| 20260904134603 | 80 | 301 | 2.6 | 5.2 | 0.00 | 0.39 | 0.39 | 89 | 1013.7 |
| 20260904133114 | 78 | 312 | 3.5 | 7.0 | 0.00 | 0.39 | 0.39 | 92 | 1013.8 |